Iron Mountain, MI

3:48 AM CDT on October 17, 2017 (GMT -0500)
Ford

Weather History for KIMT - May, 2014

Change the Weather History Date:

Friday, May 16, 2014

  Actual Average Record
Temperature  
Mean Temperature 40 °F -  
Max Temperature 48 °F 69 °F 90 °F (1962)
Min Temperature 32 °F 42 °F 21 °F (1957)
Degree Days  
Heating Degree Days 25    
Moisture  
Dew Point 27 °F    
Average Humidity 61    
Maximum Humidity 85    
Minimum Humidity 39    
Precipitation  
Precipitation 0.00 in - - ()
Sea Level Pressure  
Sea Level Pressure 30.02 in    
Wind  
Wind Speed 7 mph (NW)    
Max Wind Speed 15 mph    
Max Gust Speed 21 mph    
Visibility 10 miles    
Events      
Averages and records for this station are not official NWS values.
T = Trace of Precipitation, MM = Missing Value Source: NWS Daily Summary

Daily Weather History Graph

Daily Weather History Graph

Search for Another Location

Airport or City:

Trip Planner

Search our weather history database for the weather conditions in past years. The results will help you decide how hot, cold, wet, or windy it might be!

Date:

Astronomy

May. 16, 2014 Rise Set
Actual Time 5:19 AM CDT 8:18 PM CDT
Civil Twilight 4:44 AM CDT 8:53 PM CDT
Nautical Twilight 3:59 AM CDT 9:38 PM CDT
Astronomical Twilight 3:06 AM CDT 10:33 PM CDT
Moon 10:25 PM CDT (5/16) 7:01 AM CDT (5/16)
Length of Visible Light 16h 09m
Length of Day
14h 58m
Waning Gibbous, 95% of the Moon is Illuminated
May 16
Waning Gibbous
May 21
Last Quarter
May 28
New
Jun 5
First Quarter
Jun 12
Full

Hourly Weather History & Observations

Time (CDT) Temp. Windchill Dew Point Humidity Pressure Visibility Wind Dir Wind Speed Gust Speed Precip Events Conditions
12:54 AM 34.0 °F 28.8 °F 30.0 °F 85% 30.04 in 10.0 mi NW 5.8 mph - N/A   Overcast
1:54 AM 34.0 °F 26.6 °F 28.9 °F 82% 30.04 in 10.0 mi NW 9.2 mph - N/A   Overcast
2:54 AM 33.1 °F 26.9 °F 28.0 °F 82% 30.04 in 10.0 mi WNW 6.9 mph - N/A   Overcast
3:54 AM 33.1 °F 28.7 °F 28.0 °F 82% 30.03 in 10.0 mi West 4.6 mph - N/A   Overcast
4:54 AM 32.0 °F 26.4 °F 27.0 °F 82% 30.02 in 10.0 mi NW 5.8 mph - N/A   Mostly Cloudy
5:54 AM 32.0 °F 26.4 °F 27.0 °F 82% 30.02 in 10.0 mi NW 5.8 mph - N/A   Scattered Clouds
6:54 AM 35.1 °F 31.0 °F 27.0 °F 72% 30.02 in 10.0 mi WNW 4.6 mph - N/A   Overcast
7:54 AM 37.0 °F 29.8 °F 28.0 °F 70% 30.03 in 10.0 mi NNW 10.4 mph - N/A   Overcast
8:25 AM 37.4 °F 30.8 °F 26.6 °F 65% 29.99 in 10.0 mi NNW 9.2 mph - N/A   Overcast
8:54 AM 39.0 °F 31.4 °F 27.0 °F 62% 30.03 in 10.0 mi NNW 12.7 mph - N/A   Overcast
9:12 AM 39.2 °F 33.6 °F 28.4 °F 65% 29.98 in 10.0 mi North 8.1 mph - N/A   Overcast
9:54 AM 42.1 °F 35.7 °F 28.0 °F 58% 30.01 in 10.0 mi NW 11.5 mph - N/A   Overcast
10:54 AM 44.1 °F 37.1 °F 26.1 °F 49% 30.01 in 10.0 mi NW 15.0 mph 20.7 mph N/A   Overcast
11:54 AM 44.1 °F 40.1 °F 25.0 °F 47% 30.01 in 10.0 mi NNW 6.9 mph - N/A   Overcast
12:54 PM 45.0 °F 41.2 °F 24.1 °F 44% 30.01 in 10.0 mi WNW 6.9 mph - N/A   Overcast
1:54 PM 46.0 °F 41.9 °F 24.1 °F 42% 30.01 in 10.0 mi NW 8.1 mph - N/A   Overcast
2:54 PM 46.9 °F - 24.1 °F 41% 30.01 in 10.0 mi NNW 8.1 mph - N/A   Overcast
3:54 PM 48.0 °F - 24.1 °F 39% 30.01 in 10.0 mi NNW 8.1 mph - N/A   Overcast
4:54 PM 48.0 °F - 24.1 °F 39% 30.01 in 10.0 mi WNW 5.8 mph - N/A   Overcast
5:54 PM 48.0 °F - 26.1 °F 42% 30.01 in 10.0 mi North 10.4 mph - N/A   Overcast
6:54 PM 46.9 °F - 24.1 °F 41% 30.02 in 10.0 mi NNW 5.8 mph - N/A   Overcast
7:54 PM 44.1 °F 42.5 °F 26.1 °F 49% 30.03 in 10.0 mi NE 3.5 mph - N/A   Mostly Cloudy
8:54 PM 41.0 °F - 26.1 °F 55% 30.04 in 10.0 mi Calm Calm - N/A   Mostly Cloudy
9:54 PM 39.9 °F 37.8 °F 28.9 °F 65% 30.05 in 10.0 mi East 3.5 mph - N/A   Partly Cloudy
10:54 PM 39.0 °F 35.7 °F 28.9 °F 67% 30.04 in 10.0 mi East 4.6 mph - N/A   Scattered Clouds
11:54 PM 37.9 °F - 28.9 °F 70% 30.04 in 10.0 mi Calm Calm - N/A   Clear